TimeEDT,TemperatureF,Dew PointF,Humidity,Sea Level PressureIn,VisibilityMPH,Wind Direction,Wind SpeedMPH,Gust SpeedMPH,PrecipitationIn,Events,Conditions,WindDirDegrees,DateUTC
12:51 AM,30.0,10.9,45,29.76,10.0,West,5.8,-,N/A,,Scattered Clouds,280,2013-03-22 04:51:00
1:51 AM,28.9,10.0,45,29.77,10.0,West,10.4,-,N/A,,Partly Cloudy,270,2013-03-22 05:51:00
2:51 AM,28.9,10.9,47,29.75,10.0,West,8.1,-,N/A,,Scattered Clouds,260,2013-03-22 06:51:00
3:51 AM,28.9,12.0,49,29.75,10.0,WSW,8.1,-,N/A,,Scattered Clouds,240,2013-03-22 07:51:00
4:51 AM,28.0,14.0,56,29.75,10.0,SW,6.9,-,N/A,,Scattered Clouds,220,2013-03-22 08:51:00
5:51 AM,27.0,16.0,63,29.76,10.0,WSW,8.1,-,N/A,,Scattered Clouds,250,2013-03-22 09:51:00
6:51 AM,28.0,17.1,63,29.78,10.0,WSW,8.1,-,N/A,,Partly Cloudy,240,2013-03-22 10:51:00
7:51 AM,30.0,17.1,59,29.80,10.0,West,9.2,-,N/A,,Partly Cloudy,260,2013-03-22 11:51:00
8:51 AM,32.0,17.1,54,29.81,10.0,WNW,15.0,-,N/A,,Scattered Clouds,290,2013-03-22 12:51:00
9:51 AM,35.6,15.8,44,29.81,10.0,West,15.0,21.9,N/A,,Scattered Clouds,270,2013-03-22 13:51:00
10:51 AM,39.0,16.0,39,29.81,10.0,West,15.0,21.9,N/A,,Scattered Clouds,280,2013-03-22 14:51:00
11:51 AM,37.0,15.1,41,29.81,10.0,WNW,20.7,25.3,N/A,,Mostly Cloudy,290,2013-03-22 15:51:00
12:51 PM,39.9,15.1,36,29.80,10.0,WNW,17.3,28.8,N/A,,Mostly Cloudy,290,2013-03-22 16:51:00
1:51 PM,41.0,15.1,35,29.79,10.0,WNW,17.3,24.2,N/A,,Mostly Cloudy,300,2013-03-22 17:51:00
2:51 PM,42.1,15.1,34,29.78,10.0,West,21.9,28.8,N/A,,Overcast,280,2013-03-22 18:51:00
3:51 PM,42.1,16.0,35,29.79,10.0,West,18.4,27.6,N/A,,Mostly Cloudy,280,2013-03-22 19:51:00
4:51 PM,43.0,16.0,34,29.80,10.0,WNW,21.9,31.1,N/A,,Mostly Cloudy,290,2013-03-22 20:51:00
5:51 PM,42.1,15.1,34,29.80,10.0,West,17.3,24.2,N/A,,Mostly Cloudy,270,2013-03-22 21:51:00
6:51 PM,41.0,16.0,36,29.82,10.0,West,19.6,24.2,N/A,,Mostly Cloudy,270,2013-03-22 22:51:00
7:51 PM,39.9,17.1,40,29.85,10.0,West,11.5,18.4,N/A,,Mostly Cloudy,270,2013-03-22 23:51:00
8:51 PM,39.0,18.0,43,29.86,10.0,West,13.8,20.7,N/A,,Partly Cloudy,260,2013-03-23 00:51:00
9:51 PM,37.0,21.0,52,29.87,10.0,West,13.8,-,N/A,,Partly Cloudy,260,2013-03-23 01:51:00
10:51 PM,36.0,21.0,55,29.88,10.0,West,17.3,-,N/A,,Partly Cloudy,260,2013-03-23 02:51:00
11:51 PM,35.1,21.0,57,29.89,10.0,West,15.0,-,N/A,,Scattered Clouds,270,2013-03-23 03:51:00